FW6908 Weather Reports


time (UTC)temp
F
wind
direction
speed
knots
gust
knots
rain 1hr
in
rain 24hr
in
rain mn
in
humidity
%
barometer
mb
20260508044044 65 326 0.9 2.6 0.00 0.00 0.00 54 1018.9
20260508043539 65 332 0.9 2.6 0.00 0.00 0.00 57 1018.8
20260508043038 66 342 0.9 2.6 0.00 0.00 0.00 56 1018.7
20260508042537 66 10 0.9 2.6 0.00 0.00 0.00 52 1018.4
20260508042036 66 38 0.0 3.5 0.00 0.00 0.00 53 1018.4
20260508041538 65 12 1.7 3.5 0.00 0.00 0.00 56 1018.4
20260508041035 64 61 1.7 4.3 0.00 0.00 0.00 57 1018.3
20260508040535 64 71 1.7 4.3 0.00 0.00 0.00 61 1018.2
20260508040036 64 360 2.6 4.3 0.00 0.00 0.00 61 1018.2
20260508035534 65 355 1.7 4.3 0.00 0.00 0.00 57 1018.1
20260508035033 65 76 1.7 3.5 0.00 0.00 0.00 55 1017.9
20260508034538 65 67 0.9 2.6 0.00 0.00 0.00 57 1018.0
20260508034032 65 54 0.9 2.6 0.00 0.00 0.00 58 1017.9
20260508033532 65 48 0.9 4.3 0.00 0.00 0.00 59 1018.0
20260508033036 65 17 1.7 4.3 0.00 0.00 0.00 58 1018.0
20260508032533 65 31 1.7 3.5 0.00 0.00 0.00 59 1017.9
20260508032032 64 36 1.7 3.5 0.00 0.00 0.00 60 1018.0
20260508031536 64 11 2.6 3.5 0.00 0.00 0.00 60 1018.1
20260508031034 65 69 0.9 2.6 0.00 0.00 0.00 59 1018.0
20260508030531 65 88 0.0 2.6 0.00 0.00 0.00 57 1017.7
20260508030035 64 74 0.0 4.3 0.00 0.00 0.00 58 1017.7
20260508025535 64 71 2.6 4.3 0.00 0.00 0.00 60 1017.6
20260508025029 64 30 1.7 3.5 0.00 0.00 0.00 61 1018.0
20260508024529 63 46 0.0 2.6 0.00 0.00 0.00 64 1018.0
20260508024029 64 14 0.9 2.6 0.00 0.00 0.00 64 1018.0
20260508023529 64 72 0.9 2.6 0.00 0.00 0.00 60 1018.0
20260508023036 64 71 0.9 3.5 0.00 0.00 0.00 61 1018.1
20260508022528 64 46 0.9 3.5 0.00 0.00 0.00 61 1018.2
20260508022028 64 61 0.0 2.6 0.00 0.00 0.00 62 1018.1
20260508021530 64 59 0.9 2.6 0.00 0.00 0.00 63 1017.9
20260508021028 64 58 0.9 3.5 0.00 0.00 0.00 64 1018.1
20260508020527 63 61 1.7 3.5 0.00 0.00 0.00 65 1018.1
20260508020027 63 29 0.0 3.5 0.00 0.00 0.00 67 1018.2
20260508015527 64 44 1.7 3.5 0.00 0.00 0.00 66 1018.1
20260508015026 63 57 0.9 2.6 0.00 0.00 0.00 66 1018.1
20260508014525 63 57 0.0 1.7 0.00 0.00 0.00 67 1018.1
20260508014023 63 58 0.0 2.6 0.00 0.00 0.00 67 1018.4
20260508013523 63 57 0.0 2.6 0.00 0.00 0.00 67 1018.3
20260508013023 63 52 0.9 2.6 0.00 0.00 0.00 67 1018.4
20260508012525 64 56 0.9 2.6 0.00 0.00 0.00 67 1018.5
20260508012022 64 55 0.9 1.7 0.00 0.00 0.00 67 1018.5
20260508011521 64 54 0.0 1.7 0.00 0.00 0.00 67 1018.6
20260508011021 64 49 0.0 1.7 0.00 0.00 0.00 67 1018.7
20260508010521 64 46 0.0 0.0 0.00 0.00 0.00 67 1018.8
20260508010022 64 44 0.0 0.0 0.00 0.00 0.00 67 1018.8
20260508005520 64 43 0.0 0.9 0.00 0.00 0.00 66 1018.7
20260508005020 64 43 0.0 1.7 0.00 0.00 0.00 67 1018.9
20260508004519 64 34 0.0 1.7 0.00 0.00 0.00 66 1018.9
20260508004020 64 33 0.0 1.7 0.00 0.00 0.00 66 1018.9
20260508003519 64 29 0.0 1.7 0.00 0.00 0.00 66 1018.8
20260508003018 64 26 0.0 1.7 0.00 0.00 0.00 66 1018.8
20260508002518 64 17 0.0 2.6 0.00 0.00 0.00 66 1018.8
20260508002018 64 15 0.9 2.6 0.00 0.00 0.00 66 1018.8
20260508001536 64 14 0.9 3.5 0.00 0.00 0.00 66 1018.9
20260508001017 64 346 0.0 2.6 0.00 0.00 0.00 66 1018.8
20260508000516 64 282 0.0 0.0 0.00 0.00 0.00 66 1018.8
20260508000016 64 279 0.0 1.7 0.00 0.00 0.00 66 1019.0
20260507235516 64 279 0.0 1.7 0.00 0.00 0.00 66 1019.1
20260507235017 64 279 0.0 5.2 0.00 0.00 0.00 66 1019.2
20260507234514 64 279 0.9 5.2 0.00 0.00 0.00 65 1019.3
20260507234014 64 277 1.7 6.1 0.00 0.00 0.00 65 1019.4
20260507233513 64 268 2.6 6.1 0.00 0.00 0.00 65 1019.4
20260507233021 64 271 2.6 3.5 0.00 0.00 0.00 64 1019.6
20260507232511 64 279 1.7 5.2 0.00 0.00 0.00 63 1019.4
20260507232011 64 271 1.7 5.2 0.00 0.00 0.00 63 1019.5
20260507231513 65 282 1.7 2.6 0.00 0.00 0.00 63 1019.6
20260507231010 65 281 0.0 1.7 0.00 0.00 0.00 62 1019.4
20260507230513 65 281 0.0 1.7 0.00 0.00 0.00 62 1019.5
20260507230022 65 282 0.9 2.6 0.00 0.00 0.00 62 1019.5
20260507225508 65 282 0.9 2.6 0.00 0.00 0.00 61 1019.6
20260507225010 65 282 0.9 2.6 0.00 0.00 0.00 61 1019.6
20260507224512 65 284 0.9 3.5 0.00 0.00 0.00 61 1019.7
20260507224007 65 284 1.7 4.3 0.00 0.00 0.00 61 1019.7
20260507223507 65 289 1.7 4.3 0.00 0.00 0.00 60 1019.7
20260507223006 65 273 1.7 3.5 0.00 0.00 0.00 60 1019.7
20260507222505 65 281 1.7 3.5 0.00 0.00 0.00 59 1019.7
20260507222005 65 273 1.7 3.5 0.00 0.00 0.00 59 1019.8
20260507221506 65 267 1.7 3.5 0.00 0.00 0.00 59 1019.8
20260507221003 65 271 1.7 5.2 0.00 0.00 0.00 58 1019.9
20260507220503 65 273 2.6 5.2 0.00 0.00 0.00 58 1019.9
20260507220003 65 273 2.6 5.2 0.00 0.00 0.00 57 1019.9
20260507215503 65 265 2.6 5.2 0.00 0.00 0.00 57 1020.0
20260507215100 65 250 2.6 4.3 0.00 0.00 0.00 57 1020.1
20260507214559 65 259 2.6 3.5 0.00 0.00 0.00 56 1020.2
20260507214100 65 268 1.7 3.5 0.00 0.00 0.00 55 1020.2
20260507213601 66 271 1.7 6.1 0.00 0.00 0.00 54 1020.2
20260507213100 66 288 3.5 6.1 0.00 0.00 0.00 54 1020.3
20260507212556 66 267 2.6 5.2 0.00 0.00 0.00 53 1020.4
20260507212056 66 273 1.7 5.2 0.00 0.00 0.00 52 1020.4
20260507211555 66 291 1.7 3.5 0.00 0.00 0.00 53 1020.3
20260507211054 66 282 1.7 3.5 0.00 0.00 0.00 52 1020.4
20260507210554 66 269 1.7 3.5 0.00 0.00 0.00 52 1020.3
20260507210053 66 240 0.9 2.6 0.00 0.00 0.00 52 1020.4
20260507205553 66 238 1.7 2.6 0.00 0.00 0.00 51 1020.4
20260507205053 66 161 0.0 1.7 0.00 0.00 0.00 50 1020.3
20260507204552 67 156 0.9 1.7 0.00 0.00 0.00 50 1020.2
20260507204052 67 154 0.0 1.7 0.00 0.00 0.00 50 1020.3
20260507203552 66 137 0.0 1.7 0.00 0.00 0.00 51 1020.3
20260507203051 66 137 0.9 2.6 0.00 0.00 0.00 51 1020.3
20260507202551 66 136 0.0 2.6 0.00 0.00 0.00 50 1020.3
20260507202051 66 142 0.9 2.6 0.00 0.00 0.00 50 1020.4
20260507201551 66 134 0.9 3.5 0.00 0.00 0.00 50 1020.4
20260507201051 66 136 0.9 6.1 0.00 0.00 0.00 50 1020.3
20260507200551 66 127 1.7 6.1 0.00 0.00 0.00 50 1020.3
20260507200050 66 134 1.7 6.1 0.00 0.00 0.00 49 1020.2
20260507195549 66 136 3.5 6.1 0.00 0.00 0.00 49 1020.1
20260507195052 66 126 2.6 6.1 0.00 0.00 0.00 49 1020.1
20260507194548 67 136 2.6 6.1 0.00 0.00 0.00 49 1020.2
20260507194046 67 121 1.7 6.1 0.00 0.00 0.00 49 1020.0
20260507193546 67 94 1.7 6.1 0.00 0.00 0.00 49 1020.0
20260507193047 67 94 2.6 5.2 0.00 0.00 0.00 49 1019.8
20260507192547 67 68 0.0 0.0 0.00 0.00 0.00 49 1020.0
20260507192046 67 65 0.0 1.7 0.00 0.00 0.00 49 1020.0
20260507191546 67 47 0.0 2.6 0.00 0.00 0.00 50 1019.9
20260507191047 67 46 0.9 2.6 0.00 0.00 0.00 50 1019.7
20260507190545 67 40 1.7 3.5 0.00 0.00 0.00 49 1019.7
20260507190044 68 34 1.7 3.5 0.00 0.00 0.00 50 1019.9
20260507185644 68 19 0.9 3.5 0.00 0.00 0.00 50 1019.9
20260507185044 68 314 0.9 3.5 0.00 0.00 0.00 49 1019.9
20260507184543 68 301 0.9 3.5 0.00 0.00 0.00 49 1019.9
20260507184043 68 321 1.7 3.5 0.00 0.00 0.00 50 1019.8
20260507183543 68 318 1.7 3.5 0.00 0.00 0.00 50 1019.8
20260507183051 68 277 1.7 3.5 0.00 0.00 0.00 50 1019.8
20260507182543 68 299 0.9 6.1 0.00 0.00 0.00 51 1019.7
20260507182041 68 298 2.6 7.0 0.00 0.00 0.00 51 1019.8
20260507181542 68 268 3.5 7.0 0.00 0.00 0.00 51 1019.9
20260507181042 68 319 1.7 5.2 0.00 0.00 0.00 50 1019.8
20260507180545 68 275 2.6 5.2 0.00 0.00 0.00 49 1019.7
20260507180050 68 286 1.7 6.1 0.00 0.00 0.00 49 1019.8
20260507175541 68 267 2.6 7.8 0.00 0.00 0.00 48 1019.7
20260507175041 68 272 6.1 7.8 0.00 0.00 0.00 47 1019.7
20260507174541 68 258 3.5 7.8 0.00 0.00 0.00 48 1019.5
20260507174040 69 294 3.5 7.8 0.00 0.00 0.00 47 1019.6
20260507173543 69 269 4.3 7.8 0.00 0.00 0.00 47 1019.7
20260507173055 69 273 4.3 9.6 0.00 0.00 0.00 47 1019.8
20260507172539 69 268 7.0 9.6 0.00 0.00 0.00 46 1019.8
20260507172040 70 269 4.3 7.0 0.00 0.00 0.00 46 1019.7
20260507171539 70 271 4.3 11.3 0.00 0.00 0.00 43 1019.7
20260507171040 70 250 6.1 11.3 0.00 0.00 0.00 38 1019.6
20260507170539 71 258 5.2 7.8 0.00 0.00 0.00 38 1019.4
20260507170049 71 277 2.6 5.2 0.00 0.00 0.00 39 1019.3
20260507165539 71 264 0.9 4.3 0.00 0.00 0.00 39 1019.1
20260507165039 71 256 2.6 4.3 0.00 0.00 0.00 39 1019.1
20260507164538 71 338 1.7 5.2 0.00 0.00 0.00 40 1019.0
20260507164038 71 257 1.7 5.2 0.00 0.00 0.00 39 1018.9
20260507163539 71 250 1.7 4.3 0.00 0.00 0.00 38 1019.1
20260507163038 71 220 2.6 7.0 0.00 0.00 0.00 39 1019.0
20260507162539 72 226 4.3 10.4 0.00 0.00 0.00 38 1019.1
20260507162038 72 185 5.2 10.4 0.00 0.00 0.00 37 1019.1
20260507161540 72 217 6.1 10.4 0.00 0.00 0.00 37 1019.1
20260507161037 71 251 4.3 8.7 0.00 0.00 0.00 38 1019.2
20260507160538 72 263 4.3 8.7 0.00 0.00 0.00 38 1019.2
20260507160038 72 267 4.3 8.7 0.00 0.00 0.00 37 1019.3
20260507155537 71 269 5.2 7.8 0.00 0.00 0.00 41 1019.2
20260507155040 72 223 3.5 9.6 0.00 0.00 0.00 39 1019.3
20260507154537 72 244 6.1 10.4 0.00 0.00 0.00 37 1019.4
20260507154036 72 215 4.3 10.4 0.00 0.00 0.00 41 1019.4
20260507153536 72 246 2.6 9.6 0.00 0.00 0.00 38 1019.5
20260507153035 73 244 7.8 10.4 0.00 0.00 0.00 37 1019.6
20260507152535 73 237 4.3 10.4 0.00 0.00 0.00 39 1019.6
20260507152034 73 235 7.0 9.6 0.00 0.00 0.00 37 1019.7
20260507151535 73 201 7.0 9.6 0.00 0.00 0.00 37 1019.7
20260507151034 73 215 6.1 11.3 0.00 0.00 0.00 37 1019.6
20260507150534 72 251 7.8 11.3 0.00 0.00 0.00 37 1019.6
20260507150034 72 241 6.1 11.3 0.00 0.00 0.00 40 1019.6
20260507145532 72 271 6.1 11.3 0.00 0.00 0.00 41 1019.6
20260507145032 73 251 6.1 11.3 0.00 0.00 0.00 37 1019.5
20260507144532 73 249 8.7 11.3 0.00 0.00 0.00 35 1019.6
20260507144032 74 198 4.3 10.4 0.00 0.00 0.00 35 1019.5
20260507143531 74 214 6.1 10.4 0.00 0.00 0.00 36 1019.6
20260507143031 73 225 7.0 10.4 0.00 0.00 0.00 36 1019.6
20260507142531 74 234 5.2 13.9 0.00 0.00 0.00 36 1019.6
20260507142030 74 202 7.0 14.8 0.00 0.00 0.00 36 1019.5
20260507141531 74 240 9.6 17.4 0.00 0.00 0.00 33 1019.5
20260507141032 74 230 10.4 17.4 0.00 0.00 0.00 34 1019.4
20260507140529 74 206 7.0 13.9 0.00 0.00 0.00 35 1019.2
20260507140034 75 184 7.8 12.2 0.00 0.00 0.00 33 1019.2
20260507135528 75 158 8.7 11.3 0.00 0.00 0.00 34 1019.1
20260507135028 75 254 7.0 16.5 0.00 0.00 0.00 33 1019.2
20260507134527 75 229 7.8 15.6 0.00 0.00 0.00 34 1018.9
20260507134026 75 193 7.8 12.2 0.00 0.00 0.00 32 1019.0
20260507133525 75 259 6.1 12.2 0.00 0.00 0.00 39 1018.9
20260507133024 74 249 6.1 10.4 0.00 0.00 0.00 38 1018.8
20260507132522 74 219 7.0 13.0 0.00 0.00 0.00 41 1018.9
20260507132022 73 261 8.7 10.4 0.00 0.00 0.00 41 1018.9
20260507131521 74 262 7.0 10.4 0.00 0.00 0.00 44 1019.0
20260507131024 73 238 7.0 10.4 0.00 0.00 0.00 47 1019.0
20260507130520 72 234 6.1 13.0 0.00 0.00 0.00 48 1019.1
20260507130020 72 246 7.8 13.0 0.00 0.00 0.00 50 1019.1
20260507125520 71 288 7.8 13.9 0.00 0.00 0.00 51 1019.3
20260507125019 71 269 9.6 13.9 0.00 0.00 0.00 50 1019.3
20260507124519 72 261 8.7 12.2 0.00 0.00 0.00 49 1019.3
20260507124019 72 248 8.7 12.2 0.00 0.00 0.00 48 1019.4
20260507123519 73 219 6.1 12.2 0.00 0.00 0.00 48 1019.4
20260507123022 73 275 8.7 12.2 0.00 0.00 0.00 48 1019.4
20260507122521 73 211 6.1 12.2 0.00 0.00 0.00 50 1019.5
20260507122020 73 230 7.8 12.2 0.00 0.00 0.00 52 1019.5
20260507121517 73 277 7.8 13.9 0.00 0.00 0.00 50 1019.6
20260507121017 73 269 7.8 13.0 0.00 0.00 0.00 51 1019.6
20260507120517 73 262 7.8 11.3 0.00 0.00 0.00 51 1019.7
20260507120016 73 269 7.0 11.3 0.00 0.00 0.00 51 1019.6
20260507115519 73 240 7.8 11.3 0.00 0.00 0.00 52 1019.6
20260507115014 73 267 7.0 13.0 0.00 0.00 0.00 52 1019.5
20260507114514 73 209 7.0 13.9 0.00 0.00 0.00 53 1019.7
20260507114014 72 260 9.6 13.9 0.00 0.00 0.00 53 1019.7
20260507113514 74 263 8.7 13.9 0.00 0.00 0.00 51 1019.7
20260507113014 74 279 7.8 13.9 0.00 0.00 0.00 52 1019.7
20260507112513 73 252 7.8 15.6 0.00 0.00 0.00 52 1019.6
20260507112013 73 251 12.2 15.6 0.00 0.00 0.00 51 1019.9
20260507111516 74 253 9.6 13.9 0.00 0.00 0.00 52 1019.8
20260507111012 73 213 10.4 12.2 0.00 0.00 0.00 52 1019.8
20260507110510 74 230 9.6 13.9 0.00 0.00 0.00 52 1019.7
20260507110010 73 225 8.7 13.0 0.00 0.00 0.00 56 1019.5
20260507105510 74 199 7.0 13.0 0.00 0.00 0.00 54 1019.7
20260507105009 73 265 6.1 14.8 0.00 0.00 0.00 57 1019.7
20260507104508 73 228 10.4 14.8 0.00 0.00 0.00 54 1019.6
20260507104107 74 250 10.4 13.9 0.00 0.00 0.00 52 1019.6
20260507103506 74 220 8.7 12.2 0.00 0.00 0.00 47 1019.5
20260507103006 73 254 7.0 9.6 0.00 0.00 0.00 55 1019.2
20260507102506 74 272 7.0 10.4 0.00 0.00 0.00 53 1019.2
20260507102007 74 219 6.1 10.4 0.00 0.00 0.00 53 1019.2
20260507101507 74 217 6.1 11.3 0.00 0.00 0.00 51 1019.3
20260507101006 73 262 8.7 12.2 0.00 0.00 0.00 56 1019.3
20260507100506 73 275 7.0 12.2 0.00 0.00 0.00 55 1019.3
20260507100011 73 271 7.0 10.4 0.00 0.00 0.00 55 1019.3
20260507095508 74 219 7.0 9.6 0.00 0.00 0.00 51 1019.3
20260507095004 74 243 6.1 9.6 0.00 0.00 0.00 51 1019.3
20260507094502 74 212 6.1 9.6 0.00 0.00 0.00 49 1019.3
20260507094002 74 275 5.2 9.6 0.00 0.00 0.00 48 1019.3
20260507093502 74 215 7.8 10.4 0.00 0.00 0.00 46 1019.3
20260507093006 74 260 7.0 10.4 0.00 0.00 0.00 45 1019.2
20260507092502 75 267 4.3 8.7 0.00 0.00 0.00 45 1019.3
20260507092059 74 259 5.2 7.8 0.00 0.00 0.00 46 1019.2
20260507091558 73 261 4.3 7.8 0.00 0.00 0.00 47 1019.3
20260507091058 73 263 7.0 8.7 0.00 0.00 0.00 47 1019.4
20260507090557 73 265 6.1 8.7 0.00 0.00 0.00 47 1019.2
20260507090100 73 246 4.3 7.8 0.00 0.00 0.00 46 1019.2
20260507085555 73 260 3.5 7.0 0.00 0.00 0.00 47 1019.1
20260507085056 73 221 4.3 7.0 0.00 0.00 0.00 48 1019.1
20260507084604 72 260 4.3 7.8 0.00 0.00 0.00 47 1019.2
20260507084052 72 212 5.2 7.8 0.00 0.00 0.00 47 1019.4
20260507083552 72 238 4.3 7.0 0.00 0.00 0.00 48 1019.5
20260507083052 72 227 3.5 7.0 0.00 0.00 0.00 47 1019.4
20260507082550 72 215 3.5 7.0 0.00 0.00 0.00 46 1019.4
20260507082050 72 208 3.5 7.0 0.00 0.00 0.00 47 1019.4
20260507081550 71 269 2.6 7.0 0.00 0.00 0.00 48 1019.3
20260507081049 71 233 4.3 7.8 0.00 0.00 0.00 47 1019.3
20260507080551 71 256 3.5 6.1 0.00 0.00 0.00 49 1019.4
20260507080053 71 200 4.3 7.8 0.00 0.00 0.00 50 1019.3
20260507075547 71 246 3.5 8.7 0.00 0.00 0.00 51 1019.4
20260507075046 70 273 6.1 8.7 0.00 0.00 0.00 52 1019.3
20260507074545 70 266 4.3 8.7 0.00 0.00 0.00 52 1019.3
20260507074044 70 247 5.2 8.7 0.00 0.00 0.00 53 1019.3
20260507073543 70 250 5.2 7.8 0.00 0.00 0.00 54 1019.1
20260507073044 70 222 3.5 7.0 0.00 0.00 0.00 54 1019.1
20260507072543 70 231 1.7 7.0 0.00 0.00 0.00 53 1019.1
20260507072041 70 230 2.6 7.0 0.00 0.00 0.00 53 1019.2
20260507071540 69 247 4.3 7.0 0.00 0.00 0.00 53 1019.2
20260507071039 70 198 2.6 7.0 0.00 0.00 0.00 53 1019.2
20260507070539 69 182 2.6 7.0 0.00 0.00 0.00 54 1019.4
20260507070058 69 231 3.5 6.1 0.00 0.00 0.00 53 1019.4
20260507065537 69 238 3.5 7.8 0.00 0.00 0.00 53 1019.4
20260507065036 69 219 4.3 7.8 0.00 0.00 0.00 52 1019.4
20260507064536 69 197 4.3 8.7 0.00 0.00 0.00 53 1019.4
20260507064033 69 232 4.3 9.6 0.00 0.00 0.00 53 1019.4
20260507063531 69 261 4.3 7.0 0.00 0.00 0.00 53 1019.3
20260507063034 69 205 4.3 7.0 0.00 0.00 0.00 54 1019.2
20260507062529 69 248 3.5 7.0 0.00 0.00 0.00 53 1019.2
20260507062028 68 209 4.3 7.0 0.00 0.00 0.00 53 1019.2
20260507061528 68 213 2.6 5.2 0.00 0.00 0.00 52 1019.1
20260507061026 68 238 2.6 4.3 0.00 0.00 0.00 53 1019.1
20260507060525 68 233 1.7 3.5 0.00 0.00 0.00 53 1019.0
20260507060024 68 269 1.7 3.5 0.00 0.00 0.00 53 1018.8
20260507055523 68 283 0.9 3.5 0.00 0.00 0.00 53 1018.8
20260507055021 67 28 0.9 4.3 0.00 0.00 0.00 54 1018.7
20260507054519 66 11 1.7 5.2 0.00 0.00 0.00 57 1018.7
20260507054022 66 355 2.6 5.2 0.00 0.00 0.00 58 1018.6
20260507053516 65 355 2.6 4.3 0.00 0.00 0.00 58 1018.5
20260507053016 65 355 0.9 4.3 0.00 0.00 0.00 59 1018.5
20260507052514 65 360 0.9 4.3 0.00 0.00 0.00 60 1018.5
20260507052012 64 13 1.7 3.5 0.00 0.00 0.00 60 1018.4
20260507051511 64 11 1.7 4.3 0.00 0.00 0.00 60 1018.4
20260507051010 63 58 0.9 5.2 0.00 0.00 0.00 61 1018.4
20260507050508 62 30 0.9 5.2 0.00 0.00 0.00 62 1018.4
20260507050024 62 73 2.6 5.2 0.00 0.00 0.00 62 1018.4
20260507045507 61 56 2.6 5.2 0.00 0.00 0.00 64 1018.4
20260507045005 60 17 2.6 4.3 0.00 0.00 0.00 65 1018.5
20260507044503 59 15 1.7 3.5 0.00 0.00 0.00 67 1018.5